FW7273 Weather Reports


time (UTC)temp
C
wind
direction
speed
KPH
gust
KPH
rain 1hr
cm
rain 24hr
cm
rain mn
cm
humidity
%
barometer
mb
20260504081015 16 315 3.2 3.2 0.00 0.15 0.03 75 1011.3
20260504045017 15 264 4.8 4.8 0.13 0.13 0.13 86 1011.1
20260504044039 16 0.0 0.0 0.13 0.13 0.13 82 1010.9
20260504043022 17 0.0 0.0 0.13 0.13 0.13 76 1011.3
20260504042024 17 0.0 0.0 0.13 0.13 0.13 72 1012.3
20260504041026 19 135 1.6 4.8 0.03 0.03 0.03 58 1011.5
20260504040022 20 34 0.0 3.2 0.00 0.00 0.00 49 1011.5
20260504035039 20 279 1.6 3.2 0.00 0.00 0.00 49 1012.0
20260504034015 20 27 1.6 4.8 0.00 0.00 0.00 49 1012.3
20260504033017 20 0.0 0.0 0.00 0.00 0.00 49 1012.3
20260504032019 20 0.0 0.0 0.00 0.00 0.00 48 1012.3
20260504031021 20 327 1.6 3.2 0.00 0.00 0.00 47 1012.3
20260504030023 21 0.0 1.6 0.00 0.00 0.00 47 1012.3
20260504025046 21 180 0.0 3.2 0.00 0.00 0.00 47 1012.3
20260504024028 21 0.0 0.0 0.00 0.00 0.00 47 1012.3
20260504023030 21 0.0 0.0 0.00 0.00 0.00 48 1012.3
20260504022052 21 0.0 0.0 0.00 0.00 0.00 48 1012.3
20260504021016 -17 0.0 0.0 0.00 0.00 0.00 1012.1
20260504020017 21 0.0 0.0 0.00 0.00 0.00 46 1012.0
20260504015020 21 0.0 0.0 0.00 0.00 0.00 46 1011.8
20260504014042 21 68 1.6 3.2 0.00 0.00 0.00 46 1011.6
20260504013024 22 0.0 1.6 0.00 0.00 0.00 46 1011.6
20260504012020 22 0.0 0.0 0.00 0.00 0.00 46 1011.5
20260504011036 22 0.0 0.0 0.00 0.00 0.00 44 1011.4
20260504010030 22 0.0 1.6 0.00 0.00 0.00 43 1011.4
20260504005033 23 0.0 0.0 0.00 0.00 0.00 41 1011.4
20260504004016 23 0.0 0.0 0.00 0.00 0.00 40 1011.5
20260504003018 23 0 1.6 3.2 0.00 0.00 0.00 38 1011.6
20260504002020 23 82 3.2 6.4 0.00 0.00 0.00 38 1011.6
20260504001022 24 68 4.8 4.8 0.00 0.00 0.00 37 1011.5
20260504000025 -17 68 4.8 6.4 0.00 0.00 0.00 1011.5
20260503235027 25 45 6.4 11.3 0.00 0.00 0.00 36 1011.6
20260503234049 25 55 6.4 9.7 0.00 0.00 0.00 36 1011.8
20260503233031 25 27 8.0 11.3 0.00 0.00 0.00 35 1011.8
20260503232015 25 51 8.0 11.3 0.00 0.00 0.00 34 1012.0
20260503231038 25 95 11.3 19.3 0.00 0.00 0.00 33 1012.0
20260503230040 26 90 14.5 20.9 0.00 0.00 0.00 32 1012.0
20260503225022 26 32 8.0 9.7 0.00 0.00 0.00 33 1012.3
20260503224038 26 355 9.7 12.9 0.00 0.00 0.00 31 1012.3
20260503223026 26 70 16.1 19.3 0.00 0.00 0.00 31 1012.3
20260503222029 26 7 14.5 20.9 0.00 0.00 0.00 31 1012.3
20260503221031 -17 0.0 0.0 0.00 0.00 0.00 1012.5
20260503220015 26 45 12.9 17.7 0.00 0.00 0.00 31 1012.5
20260503215017 26 45 9.7 11.3 0.00 0.00 0.00 33 1012.8
20260503214019 26 53 4.8 6.4 0.00 0.00 0.00 34 1012.9
20260503213021 -17 23 9.7 9.7 0.00 0.00 0.00 1013.1
20260503212144 26 14.5 14.5 0.00 0.00 0.00 34 1013.1
20260503211026 -17 0.0 0.0 0.00 0.00 0.00 1013.3
20260503210028 25 14.5 14.5 0.00 0.00 0.00 33 1013.3
20260503205031 25 27 8.0 12.9 0.00 0.00 0.00 34 1013.3
20260503204015 25 320 9.7 11.3 0.00 0.00 0.00 34 1013.8
20260503203018 25 320 9.7 11.3 0.00 0.00 0.00 34 1014.1
20260503202020 25 293 11.3 14.5 0.00 0.00 0.00 33 1014.4
20260503201022 24 8.0 8.0 0.00 0.00 0.00 34 1014.8
20260503200019 24 38 9.7 12.9 0.00 0.00 0.00 35 1014.8
20260503195035 24 283 8.0 8.0 0.00 0.00 0.00 34 1015.1
20260503194023 23 140 11.3 12.9 0.00 0.00 0.00 35 1015.5
20260503193025 23 0 8.0 9.7 0.00 0.00 0.00 34 1015.9
20260503192028 23 68 11.3 16.1 0.00 0.00 0.00 34 1016.1
20260503191030 23 61 9.7 12.9 0.00 0.00 0.00 34 1016.3
20260503190032 23 38 8.0 11.3 0.00 0.00 0.00 36 1016.4
20260503185016 23 33 11.3 17.7 0.00 0.00 0.00 35 1016.5
20260503184018 23 44 8.0 14.5 0.00 0.00 0.00 36 1016.9
20260503183020 22 348 9.7 17.7 0.00 0.00 0.00 35 1017.4
20260503182023 22 63 8.0 11.3 0.00 0.00 0.00 35 1017.7
20260503181025 22 19 8.0 12.9 0.00 0.00 0.00 35 1018.2
20260503180027 22 350 6.4 8.0 0.00 0.00 0.00 36 1018.3
20260503175030 21 51 11.3 17.7 0.00 0.00 0.00 37 1018.5
20260503174026 21 48 9.7 12.9 0.00 0.00 0.00 39 1018.9
20260503173016 21 59 9.7 17.7 0.00 0.00 0.00 39 1019.0
20260503172018 21 53 12.9 19.3 0.00 0.00 0.00 40 1019.1
20260503171020 20 35 9.7 12.9 0.00 0.00 0.00 41 1019.4